timestamp,wind_dir_avg,wind_spd_avg,wind_spd_max_dir,wind_spd_gust,battery_voltage,lat,long
2023-04-06 00:04:00+00:00,324.0,7.76,321.0,9.05,12.41,47.59359,-54.27349
2023-04-06 00:14:00+00:00,322.0,7.8,320.0,9.14,12.25,47.59359,-54.27349
2023-04-06 00:24:00+00:00,316.0,5.61,321.0,6.42,12.25,47.59359,-54.27349
2023-04-06 00:34:00+00:00,325.0,7.34,338.0,9.24,12.25,47.59359,-54.27349
2023-04-06 00:44:00+00:00,330.0,7.8,329.0,9.32,12.25,47.59359,-54.27349
2023-04-06 00:54:00+00:00,334.0,7.58,340.0,9.47,12.25,47.59359,-54.27349
2023-04-06 01:04:00+00:00,319.0,8.58,321.0,10.13,12.25,47.59359,-54.27349
2023-04-06 01:14:01+00:00,319.0,7.32,328.0,8.82,12.25,47.59359,-54.27349
2023-04-06 01:24:01+00:00,324.0,6.67,323.0,7.75,12.25,47.59359,-54.27349
2023-04-06 01:34:01+00:00,308.0,5.28,314.0,6.68,12.25,47.59359,-54.27349
2023-04-06 01:44:01+00:00,311.0,6.7,305.0,8.13,12.25,47.59359,-54.27349
2023-04-06 01:54:01+00:00,306.0,5.52,307.0,6.65,12.25,47.59359,-54.27349
2023-04-06 02:04:01+00:00,310.0,5.42,297.0,6.57,12.25,47.59359,-54.27349
2023-04-06 02:14:01+00:00,290.0,6.3,293.0,7.98,12.25,47.59359,-54.27349
2023-04-06 02:24:01+00:00,317.0,6.75,319.0,8.54,12.25,47.59359,-54.27349
2023-04-06 02:34:01+00:00,315.0,5.6,294.0,7.7,12.25,47.59359,-54.27349
2023-04-06 02:44:01+00:00,288.0,2.07,312.0,2.86,12.25,47.59359,-54.27349
2023-04-06 02:54:01+00:00,279.0,4.08,303.0,5.48,12.25,47.59359,-54.27349
2023-04-06 03:04:01+00:00,290.0,5.8,284.0,6.94,12.25,47.59359,-54.27349
2023-04-06 03:14:00+00:00,289.0,6.7,297.0,9.22,12.17,47.59359,-54.27349
2023-04-06 03:24:00+00:00,279.0,3.01,284.0,4.06,12.17,47.59359,-54.27349
2023-04-06 03:34:00+00:00,282.0,4.34,289.0,5.47,12.17,47.59359,-54.27349
2023-04-06 03:44:00+00:00,300.0,3.88,286.0,5.09,12.17,47.59359,-54.27349
2023-04-06 03:54:00+00:00,300.0,4.1,304.0,5.83,12.17,47.59359,-54.27349
2023-04-06 04:04:00+00:00,294.0,2.99,312.0,4.23,12.17,47.59359,-54.27349
2023-04-06 04:14:00+00:00,280.0,3.79,281.0,6.0,12.17,47.59359,-54.27349
2023-04-06 04:24:00+00:00,279.0,2.81,271.0,4.11,12.17,47.59359,-54.27349
2023-04-06 04:34:00+00:00,297.0,3.0,308.0,4.73,12.17,47.59359,-54.27349
2023-04-06 04:44:00+00:00,293.0,1.88,267.0,3.4,12.17,47.59359,-54.27349
2023-04-06 04:54:00+00:00,292.0,4.01,298.0,5.2,12.17,47.59359,-54.27349
2023-04-06 05:04:00+00:00,241.0,3.74,237.0,4.64,12.17,47.59359,-54.27349
2023-04-06 05:14:00+00:00,307.0,6.37,307.0,7.54,12.17,47.59359,-54.27349
2023-04-06 05:24:00+00:00,281.0,3.58,276.0,5.08,12.17,47.59359,-54.27349
2023-04-06 05:34:00+00:00,270.0,3.36,272.0,4.39,12.17,47.59359,-54.27349
2023-04-06 05:44:00+00:00,271.0,3.63,267.0,4.7,12.17,47.59359,-54.27349
2023-04-06 05:54:00+00:00,268.0,2.35,271.0,3.21,12.17,47.59359,-54.27349
2023-04-06 06:04:00+00:00,257.0,3.2,255.0,4.14,12.17,47.59359,-54.27349
2023-04-06 06:14:01+00:00,298.0,3.03,304.0,4.57,12.09,47.59359,-54.27349
2023-04-06 06:24:01+00:00,278.0,4.39,292.0,5.81,12.09,47.59359,-54.27349
2023-04-06 06:34:01+00:00,329.0,2.1,341.0,2.89,12.09,47.59359,-54.27349
2023-04-06 06:44:01+00:00,284.0,3.38,271.0,4.64,12.09,47.59359,-54.27349
2023-04-06 06:54:01+00:00,271.0,4.04,273.0,4.81,12.09,47.59359,-54.27349
2023-04-06 07:04:01+00:00,304.0,4.93,312.0,5.66,12.09,47.59359,-54.27349
2023-04-06 07:14:00+00:00,263.0,3.63,266.0,5.36,12.09,47.59359,-54.27349
2023-04-06 07:24:00+00:00,296.0,3.85,300.0,4.59,12.09,47.59359,-54.27349
2023-04-06 07:34:00+00:00,297.0,5.0,302.0,6.24,12.09,47.59359,-54.27349
2023-04-06 07:44:00+00:00,274.0,4.39,272.0,7.49,12.09,47.59359,-54.27349
2023-04-06 07:54:00+00:00,291.0,4.75,289.0,6.86,12.09,47.59359,-54.27349
2023-04-06 08:04:00+00:00,279.0,4.21,276.0,6.92,12.09,47.59359,-54.27349
2023-04-06 08:14:00+00:00,274.0,4.39,272.0,7.09,12.09,47.59359,-54.27349
2023-04-06 08:24:00+00:00,282.0,4.44,277.0,6.04,12.09,47.59359,-54.27349
2023-04-06 08:34:00+00:00,296.0,5.31,300.0,6.18,12.09,47.59359,-54.27349
2023-04-06 08:44:00+00:00,287.0,5.51,280.0,7.75,12.09,47.59359,-54.27349
2023-04-06 08:54:00+00:00,276.0,4.74,270.0,7.85,12.09,47.59359,-54.27349
2023-04-06 09:04:00+00:00,302.0,5.67,296.0,6.94,12.09,47.59359,-54.27349
2023-04-06 09:14:00+00:00,292.0,5.23,295.0,6.39,12.01,47.59359,-54.27349
2023-04-06 09:24:00+00:00,282.0,4.8,288.0,5.42,12.01,47.59359,-54.27349
2023-04-06 09:34:00+00:00,283.0,4.92,289.0,5.78,12.01,47.59359,-54.27349
2023-04-06 09:44:00+00:00,282.0,4.8,273.0,5.92,12.01,47.59359,-54.27349
2023-04-06 09:54:00+00:00,279.0,4.02,288.0,4.72,12.01,47.59359,-54.27349
2023-04-06 10:04:00+00:00,268.0,4.09,268.0,6.37,12.01,47.59359,-54.27349
2023-04-06 10:14:00+00:00,283.0,4.34,276.0,5.31,12.97,47.59359,-54.27349
2023-04-06 10:24:00+00:00,273.0,4.72,272.0,5.34,12.97,47.59359,-54.27349
2023-04-06 10:34:00+00:00,266.0,4.61,267.0,5.54,12.97,47.59359,-54.27349
2023-04-06 10:44:00+00:00,282.0,4.72,293.0,5.42,12.97,47.59359,-54.27349
2023-04-06 10:54:00+00:00,281.0,5.43,284.0,6.93,12.97,47.59359,-54.27349
2023-04-06 11:04:00+00:00,283.0,5.9,288.0,6.67,12.97,47.59359,-54.27349
2023-04-06 11:14:00+00:00,286.0,6.84,289.0,7.62,13.92,47.59359,-54.27349
2023-04-06 11:24:00+00:00,297.0,6.19,303.0,7.44,13.92,47.59359,-54.27349
2023-04-06 11:34:00+00:00,300.0,5.63,303.0,7.02,13.92,47.59359,-54.27349
2023-04-06 11:44:00+00:00,292.0,5.82,293.0,7.82,13.92,47.59359,-54.27349
2023-04-06 11:54:00+00:00,282.0,5.28,281.0,6.46,13.92,47.59359,-54.27349
2023-04-06 12:04:00+00:00,299.0,6.09,298.0,7.37,13.92,47.59359,-54.27349
2023-04-06 12:14:01+00:00,272.0,5.8,270.0,8.54,14.48,47.59359,-54.27349
2023-04-06 12:24:01+00:00,290.0,5.09,286.0,5.96,14.48,47.59359,-54.27349
2023-04-06 12:34:01+00:00,293.0,6.58,295.0,7.39,14.48,47.59359,-54.27349
2023-04-06 12:44:01+00:00,276.0,5.86,281.0,7.14,14.48,47.59359,-54.27349
2023-04-06 12:54:01+00:00,279.0,5.89,280.0,6.69,14.48,47.59359,-54.27349
2023-04-06 13:04:01+00:00,282.0,6.03,285.0,6.72,14.48,47.59359,-54.27349
2023-04-06 13:14:00+00:00,277.0,6.21,283.0,7.07,14.0,47.59359,-54.27349
2023-04-06 13:24:00+00:00,277.0,6.03,275.0,8.04,14.0,47.59359,-54.27349
2023-04-06 13:34:00+00:00,264.0,4.9,270.0,5.91,14.0,47.59359,-54.27349
2023-04-06 13:44:00+00:00,261.0,5.2,263.0,5.78,14.0,47.59359,-54.27349
2023-04-06 13:54:00+00:00,265.0,5.44,267.0,6.12,14.0,47.59359,-54.27349
2023-04-06 14:04:00+00:00,254.0,4.72,255.0,5.73,14.0,47.59359,-54.27349
2023-04-06 14:14:00+00:00,247.0,4.48,243.0,5.35,13.53,47.59359,-54.27349
2023-04-06 14:24:00+00:00,256.0,5.79,260.0,6.37,13.53,47.59359,-54.27349
2023-04-06 14:34:00+00:00,248.0,5.61,251.0,6.36,13.53,47.59359,-54.27349
2023-04-06 14:44:00+00:00,247.0,5.75,243.0,6.55,13.53,47.59359,-54.27349
2023-04-06 14:54:00+00:00,252.0,5.87,254.0,6.54,13.53,47.59359,-54.27349
2023-04-06 15:04:00+00:00,237.0,4.96,234.0,5.49,13.53,47.59359,-54.27349
2023-04-06 15:14:00+00:00,232.0,5.18,231.0,5.73,13.6,47.59359,-54.27349
2023-04-06 15:24:00+00:00,247.0,6.2,241.0,7.45,13.6,47.59359,-54.27349
2023-04-06 15:34:00+00:00,248.0,5.27,252.0,6.11,13.6,47.59359,-54.27349
2023-04-06 15:44:00+00:00,231.0,5.11,230.0,5.48,13.6,47.59359,-54.27349
2023-04-06 15:54:00+00:00,235.0,4.0,244.0,4.9,13.6,47.59359,-54.27349
2023-04-06 16:04:00+00:00,167.0,4.6,199.0,5.69,13.6,47.59359,-54.27349
2023-04-06 16:14:00+00:00,181.0,6.15,202.0,7.16,13.92,47.59359,-54.27349
2023-04-06 16:24:00+00:00,200.0,5.96,211.0,7.38,13.92,47.59359,-54.27349
2023-04-06 16:34:00+00:00,182.0,4.28,220.0,5.9,13.92,47.59359,-54.27349
2023-04-06 16:44:00+00:00,210.0,5.89,215.0,7.42,13.92,47.59359,-54.27349
2023-04-06 16:54:00+00:00,172.0,4.73,208.0,5.86,13.92,47.59359,-54.27349
2023-04-06 17:04:00+00:00,267.0,6.21,275.0,7.09,13.92,47.59359,-54.27349
2023-04-06 17:14:01+00:00,263.0,4.35,264.0,4.63,13.6,47.59359,-54.27349
2023-04-06 17:24:01+00:00,263.0,4.6,263.0,5.18,13.6,47.59359,-54.27349
2023-04-06 17:34:01+00:00,264.0,4.45,264.0,4.94,13.6,47.59359,-54.27349
2023-04-06 17:44:01+00:00,257.0,4.13,258.0,4.49,13.6,47.59359,-54.27349
2023-04-06 17:54:01+00:00,243.0,3.63,242.0,3.98,13.6,47.59359,-54.27349
2023-04-06 18:04:01+00:00,129.0,1.84,143.0,2.51,13.6,47.59359,-54.27349
2023-04-06 18:14:00+00:00,207.0,5.54,214.0,7.09,14.4,47.59359,-54.27349
2023-04-06 18:24:00+00:00,174.0,6.09,210.0,7.36,14.4,47.59359,-54.27349
2023-04-06 18:34:00+00:00,162.0,5.09,164.0,5.56,14.4,47.59359,-54.27349
2023-04-06 18:44:00+00:00,159.0,5.65,162.0,6.08,14.4,47.59359,-54.27349
2023-04-06 18:54:00+00:00,233.0,1.13,260.0,3.31,14.4,47.59359,-54.27349
2023-04-06 19:04:00+00:00,265.0,4.19,266.0,4.48,14.4,47.59359,-54.27349
2023-04-06 19:14:01+00:00,270.0,4.07,270.0,4.26,13.68,47.59359,-54.27349
2023-04-06 19:24:01+00:00,272.0,3.73,272.0,4.16,13.68,47.59359,-54.27349
2023-04-06 19:34:01+00:00,278.0,2.7,275.0,3.32,13.68,47.59359,-54.27349
2023-04-06 19:44:01+00:00,274.0,2.77,281.0,3.4,13.68,47.59359,-54.27349
2023-04-06 19:54:01+00:00,281.0,3.47,287.0,3.83,13.68,47.59359,-54.27349
2023-04-06 20:04:01+00:00,230.0,2.87,235.0,4.2,13.68,47.59359,-54.27349
2023-04-06 20:14:00+00:00,194.0,3.32,222.0,5.23,13.76,47.59359,-54.27349
2023-04-06 20:24:00+00:00,180.0,5.09,210.0,6.22,13.76,47.59359,-54.27349
2023-04-06 20:34:00+00:00,212.0,7.47,211.0,8.36,13.76,47.59359,-54.27349
2023-04-06 20:44:00+00:00,219.0,6.85,220.0,7.85,13.76,47.59359,-54.27349
2023-04-06 20:54:00+00:00,216.0,7.49,216.0,8.62,13.76,47.59359,-54.27349
2023-04-06 21:04:00+00:00,227.0,6.81,226.0,7.65,13.76,47.59359,-54.27349
2023-04-06 21:14:01+00:00,232.0,7.05,238.0,8.29,13.53,47.59359,-54.27349
2023-04-06 21:24:01+00:00,232.0,6.61,237.0,7.77,13.53,47.59359,-54.27349
2023-04-06 21:34:01+00:00,225.0,5.64,226.0,6.93,13.53,47.59359,-54.27349
2023-04-06 21:44:01+00:00,227.0,6.99,225.0,7.82,13.53,47.59359,-54.27349
2023-04-06 21:54:01+00:00,223.0,6.81,223.0,7.24,13.53,47.59359,-54.27349
2023-04-06 22:04:01+00:00,228.0,7.18,234.0,8.13,13.53,47.59359,-54.27349
2023-04-06 22:14:00+00:00,236.0,6.4,234.0,7.12,12.97,47.59359,-54.27349
2023-04-06 22:24:00+00:00,253.0,6.37,252.0,6.88,12.97,47.59359,-54.27349
2023-04-06 22:34:00+00:00,259.0,5.89,262.0,7.46,12.97,47.59359,-54.27349
2023-04-06 22:44:00+00:00,256.0,6.24,262.0,7.89,12.97,47.59359,-54.27349
2023-04-06 22:54:00+00:00,250.0,5.42,243.0,5.92,12.97,47.59359,-54.27349
2023-04-06 23:04:00+00:00,240.0,4.54,241.0,4.91,12.97,47.59359,-54.27349
2023-04-06 23:14:00+00:00,241.0,4.86,240.0,5.19,12.41,47.59359,-54.27349
2023-04-06 23:24:00+00:00,245.0,4.67,243.0,5.51,12.41,47.59359,-54.27349
2023-04-06 23:34:00+00:00,245.0,4.45,244.0,4.82,12.41,47.59359,-54.27349
2023-04-06 23:44:00+00:00,240.0,5.01,238.0,5.85,12.41,47.59359,-54.27349
2023-04-06 23:54:00+00:00,235.0,5.02,235.0,5.32,12.41,47.59359,-54.27349
